owner,sensor,date,latitude,longitude,vertical_datum,sea_water_temperature,qcFlag 
ADCP,ioos:station:wmo:42363:1,2009-04-01T15:15:00Z,28.1600,-89.2200,9.99,20.1,11111222 
ADCP,ioos:station:wmo:42363:1,2009-04-01T16:15:00Z,28.1600,-89.2200,9.99,20.1,11111222 
ADCP,ioos:station:wmo:42363:1,2009-04-01T17:15:00Z,28.1600,-89.2200,9.99,20.1,11111222 
ADCP,ioos:station:wmo:42363:1,2009-04-01T18:15:00Z,28.1600,-89.2200,9.99,20.2,11111222 
ADCP,ioos:station:wmo:42363:1,2009-04-01T19:15:00Z,28.1600,-89.2200,9.99,20.3,11111222 
ADCP,ioos:station:wmo:42363:1,2009-04-01T20:15:00Z,28.1600,-89.2200,9.99,20.3,11111222 
ADCP,ioos:station:wmo:42363:1,2009-04-01T21:15:00Z,28.1600,-89.2200,9.99,20.4,11111222 
ADCP,ioos:station:wmo:42363:1,2009-04-01T22:15:00Z,28.1600,-89.2200,9.99,20.3,11111222 
ADCP,ioos:station:wmo:42363:1,2009-04-01T23:15:00Z,28.1600,-89.2200,9.99,20.3,11111222 
ADCP,ioos:station:wmo:42363:1,2009-04-02T00:15:00Z,28.1600,-89.2200,9.99,20.3,11111222 
ADCP,ioos:station:wmo:42363:1,2009-04-02T01:15:00Z,28.1600,-89.2200,9.99,20.3,11111222 
ADCP,ioos:station:wmo:42363:1,2009-04-02T02:15:00Z,28.1600,-89.2200,9.99,20.4,11111222 
ADCP,ioos:station:wmo:42363:1,2009-04-02T03:15:00Z,28.1600,-89.2200,9.99,20.4,11111222 
ADCP,ioos:station:wmo:42363:1,2009-04-02T04:15:00Z,28.1600,-89.2200,9.99,20.4,11111222 
ADCP,ioos:station:wmo:42363:1,2009-04-02T05:15:00Z,28.1600,-89.2200,9.99,20.4,11111222 
ADCP,ioos:station:wmo:42363:1,2009-04-02T06:15:00Z,28.1600,-89.2200,9.99,20.4,11111222 
ADCP,ioos:station:wmo:42363:1,2009-04-02T07:15:00Z,28.1600,-89.2200,9.99,20.4,11111222 
ADCP,ioos:station:wmo:42363:1,2009-04-02T08:15:00Z,28.1600,-89.2200,9.99,20.4,11111222 
ADCP,ioos:station:wmo:42363:1,2009-04-02T09:15:00Z,28.1600,-89.2200,9.99,20.4,11111222 
ADCP,ioos:station:wmo:42363:1,2009-04-02T10:15:00Z,28.1600,-89.2200,9.99,20.4,11111222 
ADCP,ioos:station:wmo:42363:1,2009-04-02T11:15:00Z,28.1600,-89.2200,9.99,20.4,11111222 
ADCP,ioos:station:wmo:42363:1,2009-04-02T12:15:00Z,28.1600,-89.2200,9.99,20.3,11111222 
ADCP,ioos:station:wmo:42363:1,2009-04-02T13:15:00Z,28.1600,-89.2200,9.99,20.3,11111222 
ADCP,ioos:station:wmo:42363:1,2009-04-02T14:15:00Z,28.1600,-89.2200,9.99,20.4,11111222 
ADCP,ioos:station:wmo:42363:1,2009-04-02T15:15:00Z,28.1600,-89.2200,9.99,20.3,11111222 
ADCP,ioos:station:wmo:42363:1,2009-04-02T16:15:00Z,28.1600,-89.2200,9.99,20.5,11111222 
ADCP,ioos:station:wmo:42363:1,2009-04-02T17:15:00Z,28.1600,-89.2200,9.99,20.4,11111222 
ADCP,ioos:station:wmo:42363:1,2009-04-02T18:15:00Z,28.1600,-89.2200,9.99,20.5,11111222 
ADCP,ioos:station:wmo:42363:1,2009-04-02T19:15:00Z,28.1600,-89.2200,9.99,20.4,11111222 
ADCP,ioos:station:wmo:42363:1,2009-04-02T20:15:00Z,28.1600,-89.2200,9.99,20.4,11111222 
ADCP,ioos:station:wmo:42363:1,2009-04-02T21:15:00Z,28.1600,-89.2200,9.99,20.4,11111222 
ADCP,ioos:station:wmo:42363:1,2009-04-02T22:15:00Z,28.1600,-89.2200,9.99,20.4,11111222 
ADCP,ioos:station:wmo:42363:1,2009-04-02T23:15:00Z,28.1600,-89.2200,9.99,20.3,11111222 
ADCP,ioos:station:wmo:42363:1,2009-04-03T00:15:00Z,28.1600,-89.2200,9.99,20.3,11111222 
ADCP,ioos:station:wmo:42363:1,2009-04-03T01:15:00Z,28.1600,-89.2200,9.99,20.3,11111222 
ADCP,ioos:station:wmo:42363:1,2009-04-03T02:15:00Z,28.1600,-89.2200,9.99,20.3,11111222 
ADCP,ioos:station:wmo:42363:1,2009-04-03T03:15:00Z,28.1600,-89.2200,9.99,20.3,11111222 
ADCP,ioos:station:wmo:42363:1,2009-04-03T04:15:00Z,28.1600,-89.2200,9.99,20.3,11111222 
ADCP,ioos:station:wmo:42363:1,2009-04-03T05:15:00Z,28.1600,-89.2200,9.99,20.3,11111222 
ADCP,ioos:station:wmo:42363:1,2009-04-03T06:15:00Z,28.1600,-89.2200,9.99,20.3,11111222 
ADCP,ioos:station:wmo:42363:1,2009-04-03T07:15:00Z,28.1600,-89.2200,9.99,20.3,11111222 
ADCP,ioos:station:wmo:42363:1,2009-04-03T08:15:00Z,28.1600,-89.2200,9.99,20.3,11111222 
ADCP,ioos:station:wmo:42363:1,2009-04-03T09:15:00Z,28.1600,-89.2200,9.99,20.3,11111222 
ADCP,ioos:station:wmo:42363:1,2009-04-03T10:15:00Z,28.1600,-89.2200,9.99,20.3,11111222 
ADCP,ioos:station:wmo:42363:1,2009-04-03T11:15:00Z,28.1600,-89.2200,9.99,20.3,11111222 
ADCP,ioos:station:wmo:42363:1,2009-04-03T12:15:00Z,28.1600,-89.2200,9.99,20.2,11111222 
ADCP,ioos:station:wmo:42363:1,2009-04-03T13:15:00Z,28.1600,-89.2200,9.99,20.2,11111222 
ADCP,ioos:station:wmo:42363:1,2009-04-03T14:15:00Z,28.1600,-89.2200,9.99,20.2,11111222 
ADCP,ioos:station:wmo:42363:1,2009-04-03T15:15:00Z,28.1600,-89.2200,9.99,20.2,11111222 
ADCP,ioos:station:wmo:42363:1,2009-04-03T16:15:00Z,28.1600,-89.2200,9.99,20.2,11111222 
ADCP,ioos:station:wmo:42363:1,2009-04-03T17:15:00Z,28.1600,-89.2200,9.99,20.2,11111222 
ADCP,ioos:station:wmo:42363:1,2009-04-03T18:15:00Z,28.1600,-89.2200,9.99,20.2,11111222 
ADCP,ioos:station:wmo:42363:1,2009-04-03T19:15:00Z,28.1600,-89.2200,9.99,20.2,11111222 
ADCP,ioos:station:wmo:42363:1,2009-04-03T20:15:00Z,28.1600,-89.2200,9.99,20.2,11111222 
ADCP,ioos:station:wmo:42363:1,2009-04-03T21:15:00Z,28.1600,-89.2200,9.99,20.2,11111222 
ADCP,ioos:station:wmo:42363:1,2009-04-03T22:15:00Z,28.1600,-89.2200,9.99,20.2,11111222 
ADCP,ioos:station:wmo:42363:1,2009-04-03T23:15:00Z,28.1600,-89.2200,9.99,20.2,11111222 
ADCP,ioos:station:wmo:42363:1,2009-04-04T00:15:00Z,28.1600,-89.2200,9.99,20.2,11111222 
ADCP,ioos:station:wmo:42363:1,2009-04-04T01:15:00Z,28.1600,-89.2200,9.99,20.3,11111222 
ADCP,ioos:station:wmo:42363:1,2009-04-04T02:15:00Z,28.1600,-89.2200,9.99,20.3,11111222 
ADCP,ioos:station:wmo:42363:1,2009-04-04T03:15:00Z,28.1600,-89.2200,9.99,20.3,11111222 
ADCP,ioos:station:wmo:42363:1,2009-04-04T04:15:00Z,28.1600,-89.2200,9.99,20.3,11111222 
ADCP,ioos:station:wmo:42363:1,2009-04-04T05:15:00Z,28.1600,-89.2200,9.99,20.3,11111222 
ADCP,ioos:station:wmo:42363:1,2009-04-04T06:15:00Z,28.1600,-89.2200,9.99,20.3,11111222 
ADCP,ioos:station:wmo:42363:1,2009-04-04T07:15:00Z,28.1600,-89.2200,9.99,20.3,11111222 
ADCP,ioos:station:wmo:42363:1,2009-04-04T08:15:00Z,28.1600,-89.2200,9.99,20.3,11111222 
ADCP,ioos:station:wmo:42363:1,2009-04-04T09:15:00Z,28.1600,-89.2200,9.99,20.3,11111222 
ADCP,ioos:station:wmo:42363:1,2009-04-04T10:15:00Z,28.1600,-89.2200,9.99,20.2,11111222 
ADCP,ioos:station:wmo:42363:1,2009-04-04T11:15:00Z,28.1600,-89.2200,9.99,20.2,11111222 
ADCP,ioos:station:wmo:42363:1,2009-04-04T12:15:00Z,28.1600,-89.2200,9.99,20.2,11111222 
ADCP,ioos:station:wmo:42363:1,2009-04-04T13:15:00Z,28.1600,-89.2200,9.99,20.2,11111222 
ADCP,ioos:station:wmo:42363:1,2009-04-04T14:15:00Z,28.1600,-89.2200,9.99,20.2,11111222 
ADCP,ioos:station:wmo:42363:1,2009-04-04T15:15:00Z,28.1600,-89.2200,9.99,20.2,11111222 
ADCP,ioos:station:wmo:42363:1,2009-04-04T16:15:00Z,28.1600,-89.2200,9.99,20.3,11111222 
ADCP,ioos:station:wmo:42363:1,2009-04-04T17:15:00Z,28.1600,-89.2200,9.99,20.5,11111222 
ADCP,ioos:station:wmo:42363:1,2009-04-04T18:15:00Z,28.1600,-89.2200,9.99,20.6,11111222 
ADCP,ioos:station:wmo:42363:1,2009-04-04T19:15:00Z,28.1600,-89.2200,9.99,20.6,11111222 
ADCP,ioos:station:wmo:42363:1,2009-04-04T20:15:00Z,28.1600,-89.2200,9.99,20.7,11111222 
ADCP,ioos:station:wmo:42363:1,2009-04-04T21:15:00Z,28.1600,-89.2200,9.99,20.8,11111222 
ADCP,ioos:station:wmo:42363:1,2009-04-04T22:15:00Z,28.1600,-89.2200,9.99,20.8,11111222 
ADCP,ioos:station:wmo:42363:1,2009-04-04T23:15:00Z,28.1600,-89.2200,9.99,20.8,11111222 
ADCP,ioos:station:wmo:42363:1,2009-04-05T00:15:00Z,28.1600,-89.2200,9.99,20.7,11111222 
ADCP,ioos:station:wmo:42363:1,2009-04-05T01:15:00Z,28.1600,-89.2200,9.99,20.7,11111222 
ADCP,ioos:station:wmo:42363:1,2009-04-05T02:15:00Z,28.1600,-89.2200,9.99,20.7,11111222 
ADCP,ioos:station:wmo:42363:1,2009-04-05T03:15:00Z,28.1600,-89.2200,9.99,20.7,11111222 
ADCP,ioos:station:wmo:42363:1,2009-04-05T04:15:00Z,28.1600,-89.2200,9.99,20.7,11111222 
ADCP,ioos:station:wmo:42363:1,2009-04-05T05:15:00Z,28.1600,-89.2200,9.99,20.8,11111222 
ADCP,ioos:station:wmo:42363:1,2009-04-05T06:15:00Z,28.1600,-89.2200,9.99,20.7,11111222 
ADCP,ioos:station:wmo:42363:1,2009-04-05T07:15:00Z,28.1600,-89.2200,9.99,20.7,11111222 
ADCP,ioos:station:wmo:42363:1,2009-04-05T08:15:00Z,28.1600,-89.2200,9.99,20.7,11111222 
ADCP,ioos:station:wmo:42363:1,2009-04-05T09:15:00Z,28.1600,-89.2200,9.99,20.6,11111222 
ADCP,ioos:station:wmo:42363:1,2009-04-05T10:15:00Z,28.1600,-89.2200,9.99,20.7,11111222 
ADCP,ioos:station:wmo:42363:1,2009-04-05T11:15:00Z,28.1600,-89.2200,9.99,20.4,11111222 
ADCP,ioos:station:wmo:42363:1,2009-04-05T12:15:00Z,28.1600,-89.2200,9.99,20.5,11111222 
ADCP,ioos:station:wmo:42363:1,2009-04-05T13:15:00Z,28.1600,-89.2200,9.99,20.7,11111222 
ADCP,ioos:station:wmo:42363:1,2009-04-05T14:15:00Z,28.1600,-89.2200,9.99,20.7,11111222 
ADCP,ioos:station:wmo:42363:1,2009-04-05T15:15:00Z,28.1600,-89.2200,9.99,20.7,11111222 
ADCP,ioos:station:wmo:42363:1,2009-04-05T16:15:00Z,28.1600,-89.2200,9.99,20.7,11111222 
ADCP,ioos:station:wmo:42363:1,2009-04-05T17:15:00Z,28.1600,-89.2200,9.99,20.7,11111222 
ADCP,ioos:station:wmo:42363:1,2009-04-05T18:15:00Z,28.1600,-89.2200,9.99,20.7,11111222 
ADCP,ioos:station:wmo:42363:1,2009-04-05T19:15:00Z,28.1600,-89.2200,9.99,20.7,11111222 
ADCP,ioos:station:wmo:42363:1,2009-04-05T20:15:00Z,28.1600,-89.2200,9.99,20.7,11111222 
ADCP,ioos:station:wmo:42363:1,2009-04-05T21:15:00Z,28.1600,-89.2200,9.99,20.8,11111222 
ADCP,ioos:station:wmo:42363:1,2009-04-05T22:15:00Z,28.1600,-89.2200,9.99,20.8,11111222 
ADCP,ioos:station:wmo:42363:1,2009-04-05T23:15:00Z,28.1600,-89.2200,9.99,20.9,11111222 
ADCP,ioos:station:wmo:42363:1,2009-04-06T00:15:00Z,28.1600,-89.2200,9.99,20.9,11111222 
ADCP,ioos:station:wmo:42363:1,2009-04-06T01:15:00Z,28.1600,-89.2200,9.99,21.0,11111222 
ADCP,ioos:station:wmo:42363:1,2009-04-06T02:15:00Z,28.1600,-89.2200,9.99,20.9,11111222 
ADCP,ioos:station:wmo:42363:1,2009-04-06T03:15:00Z,28.1600,-89.2200,9.99,20.8,11111222 
ADCP,ioos:station:wmo:42363:1,2009-04-06T04:15:00Z,28.1600,-89.2200,9.99,20.8,11111222 
ADCP,ioos:station:wmo:42363:1,2009-04-06T05:15:00Z,28.1600,-89.2200,9.99,20.8,11111222 
ADCP,ioos:station:wmo:42363:1,2009-04-06T06:15:00Z,28.1600,-89.2200,9.99,20.8,11111222 
ADCP,ioos:station:wmo:42363:1,2009-04-06T07:15:00Z,28.1600,-89.2200,9.99,20.8,11111222 
ADCP,ioos:station:wmo:42363:1,2009-04-06T08:15:00Z,28.1600,-89.2200,9.99,20.8,11111222 
ADCP,ioos:station:wmo:42363:1,2009-04-06T09:15:00Z,28.1600,-89.2200,9.99,20.9,11111222 
ADCP,ioos:station:wmo:42363:1,2009-04-06T10:15:00Z,28.1600,-89.2200,9.99,20.8,11111222 
ADCP,ioos:station:wmo:42363:1,2009-04-06T11:15:00Z,28.1600,-89.2200,9.99,20.4,11111222 
ADCP,ioos:station:wmo:42363:1,2009-04-06T12:15:00Z,28.1600,-89.2200,9.99,20.8,11111222 
ADCP,ioos:station:wmo:42363:1,2009-04-06T13:15:00Z,28.1600,-89.2200,9.99,20.7,11111222 
ADCP,ioos:station:wmo:42363:1,2009-04-06T14:15:00Z,28.1600,-89.2200,9.99,20.7,11111222 
ADCP,ioos:station:wmo:42363:1,2009-04-06T15:15:00Z,28.1600,-89.2200,9.99,20.7,11111222 
ADCP,ioos:station:wmo:42363:1,2009-04-06T16:15:00Z,28.1600,-89.2200,9.99,20.7,11111222 
ADCP,ioos:station:wmo:42363:1,2009-04-06T17:15:00Z,28.1600,-89.2200,9.99,20.6,11111222 
ADCP,ioos:station:wmo:42363:1,2009-04-06T18:15:00Z,28.1600,-89.2200,9.99,20.6,11111222 
ADCP,ioos:station:wmo:42363:1,2009-04-06T19:15:00Z,28.1600,-89.2200,9.99,20.6,11111222 
ADCP,ioos:station:wmo:42363:1,2009-04-06T20:15:00Z,28.1600,-89.2200,9.99,20.6,11111222 
ADCP,ioos:station:wmo:42363:1,2009-04-06T21:15:00Z,28.1600,-89.2200,9.99,20.6,11111222 
ADCP,ioos:station:wmo:42363:1,2009-04-06T22:15:00Z,28.1600,-89.2200,9.99,20.7,11111222 
ADCP,ioos:station:wmo:42363:1,2009-04-06T23:15:00Z,28.1600,-89.2200,9.99,20.7,11111222 
ADCP,ioos:station:wmo:42363:1,2009-04-07T00:15:00Z,28.1600,-89.2200,9.99,20.7,11111222 
ADCP,ioos:station:wmo:42363:1,2009-04-07T01:15:00Z,28.1600,-89.2200,9.99,20.6,11111222 
ADCP,ioos:station:wmo:42363:1,2009-04-07T02:15:00Z,28.1600,-89.2200,9.99,20.6,11111222 
ADCP,ioos:station:wmo:42363:1,2009-04-07T03:15:00Z,28.1600,-89.2200,9.99,20.6,11111222 
ADCP,ioos:station:wmo:42363:1,2009-04-07T04:15:00Z,28.1600,-89.2200,9.99,20.6,11111222 
ADCP,ioos:station:wmo:42363:1,2009-04-07T05:15:00Z,28.1600,-89.2200,9.99,20.6,11111222 
ADCP,ioos:station:wmo:42363:1,2009-04-07T06:15:00Z,28.1600,-89.2200,9.99,20.6,11111222 
ADCP,ioos:station:wmo:42363:1,2009-04-07T07:15:00Z,28.1600,-89.2200,9.99,20.5,11111222 
ADCP,ioos:station:wmo:42363:1,2009-04-07T08:15:00Z,28.1600,-89.2200,9.99,20.5,11111222 
ADCP,ioos:station:wmo:42363:1,2009-04-07T09:15:00Z,28.1600,-89.2200,9.99,20.5,11111222 
ADCP,ioos:station:wmo:42363:1,2009-04-07T10:15:00Z,28.1600,-89.2200,9.99,20.5,11111222 
ADCP,ioos:station:wmo:42363:1,2009-04-07T11:15:00Z,28.1600,-89.2200,9.99,20.4,11111222 
ADCP,ioos:station:wmo:42363:1,2009-04-07T12:00:00Z,28.1600,-89.2200,9.99,20.4,11111222 
ADCP,ioos:station:wmo:42363:1,2009-04-07T13:00:00Z,28.1600,-89.2200,9.99,20.3,11111222 
ADCP,ioos:station:wmo:42363:1,2009-04-07T14:00:00Z,28.1600,-89.2200,9.99,20.4,11111222 
ADCP,ioos:station:wmo:42363:1,2009-04-07T15:00:00Z,28.1600,-89.2200,9.99,20.4,11111222 
ADCP,ioos:station:wmo:42363:1,2009-04-07T16:00:00Z,28.1600,-89.2200,9.99,20.4,11111222 
ADCP,ioos:station:wmo:42363:1,2009-04-07T17:00:00Z,28.1600,-89.2200,9.99,20.4,11111222 
ADCP,ioos:station:wmo:42363:1,2009-04-07T18:00:00Z,28.1600,-89.2200,9.99,20.4,11111222 
ADCP,ioos:station:wmo:42363:1,2009-04-07T19:00:00Z,28.1600,-89.2200,9.99,20.4,11111222 
ADCP,ioos:station:wmo:42363:1,2009-04-07T20:00:00Z,28.1600,-89.2200,9.99,20.4,11111222 
ADCP,ioos:station:wmo:42363:1,2009-04-07T21:00:00Z,28.1600,-89.2200,9.99,20.4,11111222 
ADCP,ioos:station:wmo:42363:1,2009-04-07T22:00:00Z,28.1600,-89.2200,9.99,20.4,11111222 
ADCP,ioos:station:wmo:42363:1,2009-04-07T23:00:00Z,28.1600,-89.2200,9.99,20.4,11111222 
ADCP,ioos:station:wmo:42363:1,2009-04-08T00:00:00Z,28.1600,-89.2200,9.99,20.3,11111222 
ADCP,ioos:station:wmo:42363:1,2009-04-08T01:00:00Z,28.1600,-89.2200,9.99,20.3,11111222 
ADCP,ioos:station:wmo:42363:1,2009-04-08T02:00:00Z,28.1600,-89.2200,9.99,20.3,11111222 
ADCP,ioos:station:wmo:42363:1,2009-04-08T03:00:00Z,28.1600,-89.2200,9.99,20.3,11111222 
ADCP,ioos:station:wmo:42363:1,2009-04-08T04:00:00Z,28.1600,-89.2200,9.99,20.2,11111222 
ADCP,ioos:station:wmo:42363:1,2009-04-08T05:00:00Z,28.1600,-89.2200,9.99,20.2,11111222 
ADCP,ioos:station:wmo:42363:1,2009-04-08T06:00:00Z,28.1600,-89.2200,9.99,20.2,11111222 
ADCP,ioos:station:wmo:42363:1,2009-04-08T07:00:00Z,28.1600,-89.2200,9.99,20.2,11111222 
ADCP,ioos:station:wmo:42363:1,2009-04-08T08:00:00Z,28.1600,-89.2200,9.99,20.1,11111222 
ADCP,ioos:station:wmo:42363:1,2009-04-08T09:00:00Z,28.1600,-89.2200,9.99,20.1,11111222 
ADCP,ioos:station:wmo:42363:1,2009-04-08T10:00:00Z,28.1600,-89.2200,9.99,20.1,11111222 
ADCP,ioos:station:wmo:42363:1,2009-04-08T11:00:00Z,28.1600,-89.2200,9.99,20.1,11111222 
ADCP,ioos:station:wmo:42363:1,2009-04-08T12:00:00Z,28.1600,-89.2200,9.99,20.1,11111222 
ADCP,ioos:station:wmo:42363:1,2009-04-08T13:00:00Z,28.1600,-89.2200,9.99,20.1,11111222 
ADCP,ioos:station:wmo:42363:1,2009-04-08T14:00:00Z,28.1600,-89.2200,9.99,20.1,11111222 
ADCP,ioos:station:wmo:42363:1,2009-04-08T15:00:00Z,28.1600,-89.2200,9.99,20.1,11111222 
ADCP,ioos:station:wmo:42363:1,2009-04-08T16:00:00Z,28.1600,-89.2200,9.99,20.1,11111222 
ADCP,ioos:station:wmo:42363:1,2009-04-08T17:00:00Z,28.1600,-89.2200,9.99,20.2,11111222 
ADCP,ioos:station:wmo:42363:1,2009-04-08T18:00:00Z,28.1600,-89.2200,9.99,20.1,11111222 
ADCP,ioos:station:wmo:42363:1,2009-04-08T19:00:00Z,28.1600,-89.2200,9.99,20.1,11111222 
ADCP,ioos:station:wmo:42363:1,2009-04-08T20:00:00Z,28.1600,-89.2200,9.99,20.1,11111222 
ADCP,ioos:station:wmo:42363:1,2009-04-08T21:00:00Z,28.1600,-89.2200,9.99,20.1,11111222 
ADCP,ioos:station:wmo:42363:1,2009-04-08T22:00:00Z,28.1600,-89.2200,9.99,20.1,11111222 
ADCP,ioos:station:wmo:42363:1,2009-04-08T23:00:00Z,28.1600,-89.2200,9.99,20.1,11111222 
ADCP,ioos:station:wmo:42363:1,2009-04-09T00:00:00Z,28.1600,-89.2200,9.99,20.1,11111222 
ADCP,ioos:station:wmo:42363:1,2009-04-09T01:00:00Z,28.1600,-89.2200,9.99,20.0,11111222 
ADCP,ioos:station:wmo:42363:1,2009-04-09T02:00:00Z,28.1600,-89.2200,9.99,20.0,11111222 
ADCP,ioos:station:wmo:42363:1,2009-04-09T03:00:00Z,28.1600,-89.2200,9.99,20.0,11111222 
ADCP,ioos:station:wmo:42363:1,2009-04-09T04:00:00Z,28.1600,-89.2200,9.99,20.0,11111222 
ADCP,ioos:station:wmo:42363:1,2009-04-09T05:00:00Z,28.1600,-89.2200,9.99,19.9,11111222 
ADCP,ioos:station:wmo:42363:1,2009-04-09T06:00:00Z,28.1600,-89.2200,9.99,19.9,11111222 
ADCP,ioos:station:wmo:42363:1,2009-04-09T07:00:00Z,28.1600,-89.2200,9.99,19.8,11111222 
ADCP,ioos:station:wmo:42363:1,2009-04-09T08:00:00Z,28.1600,-89.2200,9.99,19.8,11111222 
ADCP,ioos:station:wmo:42363:1,2009-04-09T09:00:00Z,28.1600,-89.2200,9.99,19.8,11111222 
ADCP,ioos:station:wmo:42363:1,2009-04-09T10:00:00Z,28.1600,-89.2200,9.99,19.7,11111222 
ADCP,ioos:station:wmo:42363:1,2009-04-09T11:00:00Z,28.1600,-89.2200,9.99,19.7,11111222 
ADCP,ioos:station:wmo:42363:1,2009-04-09T12:00:00Z,28.1600,-89.2200,9.99,19.7,11111222 
ADCP,ioos:station:wmo:42363:1,2009-04-09T13:00:00Z,28.1600,-89.2200,9.99,19.7,11111222 
ADCP,ioos:station:wmo:42363:1,2009-04-09T14:00:00Z,28.1600,-89.2200,9.99,19.7,11111222 
ADCP,ioos:station:wmo:42363:1,2009-04-09T15:00:00Z,28.1600,-89.2200,9.99,19.7,11111222 
ADCP,ioos:station:wmo:42363:1,2009-04-09T16:00:00Z,28.1600,-89.2200,9.99,19.8,11111222 
ADCP,ioos:station:wmo:42363:1,2009-04-09T17:00:00Z,28.1600,-89.2200,9.99,19.8,11111222 
ADCP,ioos:station:wmo:42363:1,2009-04-09T18:00:00Z,28.1600,-89.2200,9.99,19.8,11111222 
ADCP,ioos:station:wmo:42363:1,2009-04-09T19:00:00Z,28.1600,-89.2200,9.99,19.8,11111222 
ADCP,ioos:station:wmo:42363:1,2009-04-09T20:00:00Z,28.1600,-89.2200,9.99,19.8,11111222 
ADCP,ioos:station:wmo:42363:1,2009-04-09T21:00:00Z,28.1600,-89.2200,9.99,19.8,11111222 
ADCP,ioos:station:wmo:42363:1,2009-04-09T22:00:00Z,28.1600,-89.2200,9.99,19.8,11111222 
ADCP,ioos:station:wmo:42363:1,2009-04-09T23:00:00Z,28.1600,-89.2200,9.99,19.8,11111222 
ADCP,ioos:station:wmo:42363:1,2009-04-10T00:00:00Z,28.1600,-89.2200,9.99,19.8,11111222 
ADCP,ioos:station:wmo:42363:1,2009-04-10T01:00:00Z,28.1600,-89.2200,9.99,19.8,11111222 
ADCP,ioos:station:wmo:42363:1,2009-04-10T02:00:00Z,28.1600,-89.2200,9.99,19.8,11111222 
ADCP,ioos:station:wmo:42363:1,2009-04-10T03:00:00Z,28.1600,-89.2200,9.99,19.8,11111222 
ADCP,ioos:station:wmo:42363:1,2009-04-10T04:00:00Z,28.1600,-89.2200,9.99,19.8,11111222 
ADCP,ioos:station:wmo:42363:1,2009-04-10T05:00:00Z,28.1600,-89.2200,9.99,19.8,11111222 
ADCP,ioos:station:wmo:42363:1,2009-04-10T06:00:00Z,28.1600,-89.2200,9.99,19.8,11111222 
ADCP,ioos:station:wmo:42363:1,2009-04-10T07:00:00Z,28.1600,-89.2200,9.99,19.8,11111222 
ADCP,ioos:station:wmo:42363:1,2009-04-10T08:00:00Z,28.1600,-89.2200,9.99,19.8,11111222 
ADCP,ioos:station:wmo:42363:1,2009-04-10T09:00:00Z,28.1600,-89.2200,9.99,19.8,11111222 
ADCP,ioos:station:wmo:42363:1,2009-04-10T10:00:00Z,28.1600,-89.2200,9.99,19.8,11111222 
ADCP,ioos:station:wmo:42363:1,2009-04-10T11:00:00Z,28.1600,-89.2200,9.99,19.8,11111222 
ADCP,ioos:station:wmo:42363:1,2009-04-10T12:00:00Z,28.1600,-89.2200,9.99,19.8,11111222 
ADCP,ioos:station:wmo:42363:1,2009-04-10T13:00:00Z,28.1600,-89.2200,9.99,19.8,11111222 
ADCP,ioos:station:wmo:42363:1,2009-04-10T14:00:00Z,28.1600,-89.2200,9.99,19.8,11111222 
ADCP,ioos:station:wmo:42363:1,2009-04-10T15:00:00Z,28.1600,-89.2200,9.99,19.9,11111222 
ADCP,ioos:station:wmo:42363:1,2009-04-10T16:00:00Z,28.1600,-89.2200,9.99,20.0,11111222 
ADCP,ioos:station:wmo:42363:1,2009-04-10T17:00:00Z,28.1600,-89.2200,9.99,20.0,11111222 
ADCP,ioos:station:wmo:42363:1,2009-04-10T18:00:00Z,28.1600,-89.2200,9.99,20.0,11111222 
ADCP,ioos:station:wmo:42363:1,2009-04-10T19:00:00Z,28.1600,-89.2200,9.99,19.9,11111222 
ADCP,ioos:station:wmo:42363:1,2009-04-10T20:00:00Z,28.1600,-89.2200,9.99,20.0,11111222 
ADCP,ioos:station:wmo:42363:1,2009-04-10T21:00:00Z,28.1600,-89.2200,9.99,20.0,11111222 
ADCP,ioos:station:wmo:42363:1,2009-04-10T22:00:00Z,28.1600,-89.2200,9.99,20.0,11111222 
ADCP,ioos:station:wmo:42363:1,2009-04-10T23:00:00Z,28.1600,-89.2200,9.99,20.0,11111222 
ADCP,ioos:station:wmo:42363:1,2009-04-11T00:00:00Z,28.1600,-89.2200,9.99,19.9,11111222 
ADCP,ioos:station:wmo:42363:1,2009-04-11T01:00:00Z,28.1600,-89.2200,9.99,19.8,11111222 
ADCP,ioos:station:wmo:42363:1,2009-04-11T02:00:00Z,28.1600,-89.2200,9.99,19.9,11111222 
ADCP,ioos:station:wmo:42363:1,2009-04-11T03:00:00Z,28.1600,-89.2200,9.99,19.9,11111222 
ADCP,ioos:station:wmo:42363:1,2009-04-11T04:00:00Z,28.1600,-89.2200,9.99,19.9,11111222 
ADCP,ioos:station:wmo:42363:1,2009-04-11T05:00:00Z,28.1600,-89.2200,9.99,19.9,11111222 
ADCP,ioos:station:wmo:42363:1,2009-04-11T06:15:00Z,28.1600,-89.2200,9.99,19.9,11111222 
ADCP,ioos:station:wmo:42363:1,2009-04-11T07:00:00Z,28.1600,-89.2200,9.99,19.9,11111222 
ADCP,ioos:station:wmo:42363:1,2009-04-11T08:15:00Z,28.1600,-89.2200,9.99,19.9,11111222 
ADCP,ioos:station:wmo:42363:1,2009-04-11T09:15:00Z,28.1600,-89.2200,9.99,19.9,11111222 
ADCP,ioos:station:wmo:42363:1,2009-04-11T10:00:00Z,28.1600,-89.2200,9.99,19.9,11111222 
ADCP,ioos:station:wmo:42363:1,2009-04-11T11:15:00Z,28.1600,-89.2200,9.99,19.9,11111222 
ADCP,ioos:station:wmo:42363:1,2009-04-11T12:00:00Z,28.1600,-89.2200,9.99,19.9,11111222 
ADCP,ioos:station:wmo:42363:1,2009-04-11T13:15:00Z,28.1600,-89.2200,9.99,19.9,11111222 
ADCP,ioos:station:wmo:42363:1,2009-04-11T14:15:00Z,28.1600,-89.2200,9.99,20.0,11111222 
ADCP,ioos:station:wmo:42363:1,2009-04-11T15:15:00Z,28.1600,-89.2200,9.99,20.0,11111222 
ADCP,ioos:station:wmo:42363:1,2009-04-11T16:15:00Z,28.1600,-89.2200,9.99,20.0,11111222 
ADCP,ioos:station:wmo:42363:1,2009-04-11T17:15:00Z,28.1600,-89.2200,9.99,20.0,11111222 
ADCP,ioos:station:wmo:42363:1,2009-04-11T18:15:00Z,28.1600,-89.2200,9.99,20.0,11111222 
ADCP,ioos:station:wmo:42363:1,2009-04-11T19:15:00Z,28.1600,-89.2200,9.99,20.0,11111222 
ADCP,ioos:station:wmo:42363:1,2009-04-11T20:15:00Z,28.1600,-89.2200,9.99,20.0,11111222 
ADCP,ioos:station:wmo:42363:1,2009-04-11T21:15:00Z,28.1600,-89.2200,9.99,20.0,11111222 
ADCP,ioos:station:wmo:42363:1,2009-04-11T22:15:00Z,28.1600,-89.2200,9.99,20.0,11111222 
ADCP,ioos:station:wmo:42363:1,2009-04-11T23:15:00Z,28.1600,-89.2200,9.99,20.3,11111222 
ADCP,ioos:station:wmo:42363:1,2009-04-12T00:00:00Z,28.1600,-89.2200,9.99,20.2,11111222 
ADCP,ioos:station:wmo:42363:1,2009-04-12T01:00:00Z,28.1600,-89.2200,9.99,20.3,11111222 
ADCP,ioos:station:wmo:42363:1,2009-04-12T02:00:00Z,28.1600,-89.2200,9.99,20.0,11111222 
ADCP,ioos:station:wmo:42363:1,2009-04-12T03:00:00Z,28.1600,-89.2200,9.99,20.2,11111222 
ADCP,ioos:station:wmo:42363:1,2009-04-12T04:00:00Z,28.1600,-89.2200,9.99,20.1,11111222 
ADCP,ioos:station:wmo:42363:1,2009-04-12T05:00:00Z,28.1600,-89.2200,9.99,20.1,11111222 
ADCP,ioos:station:wmo:42363:1,2009-04-12T06:00:00Z,28.1600,-89.2200,9.99,20.1,11111222 
ADCP,ioos:station:wmo:42363:1,2009-04-12T07:00:00Z,28.1600,-89.2200,9.99,20.2,11111222 
ADCP,ioos:station:wmo:42363:1,2009-04-12T08:15:00Z,28.1600,-89.2200,9.99,20.2,11111222 
ADCP,ioos:station:wmo:42363:1,2009-04-12T09:15:00Z,28.1600,-89.2200,9.99,20.1,11111222 
ADCP,ioos:station:wmo:42363:1,2009-04-12T10:15:00Z,28.1600,-89.2200,9.99,20.1,11111222 
ADCP,ioos:station:wmo:42363:1,2009-04-12T11:15:00Z,28.1600,-89.2200,9.99,20.1,11111222 
ADCP,ioos:station:wmo:42363:1,2009-04-12T12:15:00Z,28.1600,-89.2200,9.99,20.1,11111222 
ADCP,ioos:station:wmo:42363:1,2009-04-12T13:15:00Z,28.1600,-89.2200,9.99,20.1,11111222 
ADCP,ioos:station:wmo:42363:1,2009-04-12T14:15:00Z,28.1600,-89.2200,9.99,20.0,11111222 
ADCP,ioos:station:wmo:42363:1,2009-04-12T15:15:00Z,28.1600,-89.2200,9.99,20.0,11111222 
ADCP,ioos:station:wmo:42363:1,2009-04-12T16:15:00Z,28.1600,-89.2200,9.99,20.0,11111222 
ADCP,ioos:station:wmo:42363:1,2009-04-12T17:15:00Z,28.1600,-89.2200,9.99,20.0,11111222 
ADCP,ioos:station:wmo:42363:1,2009-04-12T18:15:00Z,28.1600,-89.2200,9.99,19.9,11111222 
ADCP,ioos:station:wmo:42363:1,2009-04-12T19:15:00Z,28.1600,-89.2200,9.99,20.1,11111222 
ADCP,ioos:station:wmo:42363:1,2009-04-12T20:15:00Z,28.1600,-89.2200,9.99,19.9,11111222 
ADCP,ioos:station:wmo:42363:1,2009-04-12T21:15:00Z,28.1600,-89.2200,9.99,19.9,11111222 